Terug naar catalogus

STARLINK-38081

ActiefCommunicatieSSO
NORAD 100153·PAYLOAD·🇺🇸 United States

Gelanceerd Jul 25, 2026 vanaf Vandenberg Space Force Base

Loading…

Volgende Passages (komende 24 uur)

TLE

VersSource: Space-Track

Epoch: Sep 14, 2026, 23:20 UTC

1 A0153U 26171F   26257.97235489 -.00098130  00000-0 -30649-2 0  9992
2 A0153  97.2835 290.5658 0002213  81.5621 278.5872 15.33565793  8050

Volg STARLINK-38081 in realtime met AllMySat

Download on the App Store